THOR ABLESTAR DEB, 478

Orbit data source: Space-Track

THOR ABLESTAR DEB, 478 is space debris in LEO originally from a launch on Thu, 29 Jun 1961 UTC launched from the Air Force Eastern Test Range (AFETR). Debris objects in space refer to the collection of defunct objects orbiting the Earth. Examples of debris include non-operational satellites, rocket bodies, and fragments generated from explosions, collisions, or faulty payload assembly.

Loading next visibility...
Identifier
478, 1961-015FQ
Orbit
LEO
Country
Flag of USUS
Related business
Manufacturer
Unknown
Mission
Spacecraft
Bus & Motor
Unknown
Mass
Unknown
Launch date (UTC)
1961-06-29 (64 years ago)
Launch vehicle
Unknown
Launch site
Air Force Eastern Test Range (AFETR)
Object type
Payload
Rocket body
Debris
Shape & HBR
Unknown
Radar Cross Section
Small (<0.1 m²)

Expand to show TLE details & history
Last TLE update: 1 day ago

TLE from 1 day ago
0 THOR ABLESTAR DEB
1 00478U 61015FQ  25260.39799594  .00008564  00000-0  96235-3 0  9993
2 00478  66.0596 254.2031 0021499 145.4057 214.8469 14.87029269343485
Epoch: 2025-09-17T09:33Z
TLE epoch observation values (Epoch: 2025-09-17T09:33:06.849Z)
Latitude
0.00004°
Longitude
114.35006°
Altitude
621.671 km
Speed
7.542 km/s
True Right ascension
16h 56m 48s
True Declination
0° 00' 00"
Sunlit
Object was in daylight at epoch
Visualization orbit readout
Latitude
Unknown
Longitude
Unknown
Altitude
Unknown
Speed
Unknown
Apparent Right ascension
Unknown
Apparent Declination
Unknown
Sunlit
N/A
Visualization observer readout
Local Sidereal Time
06:28:16
Azimuth
Unknown
Elevation
Unknown
Doppler factor
Unknown
Orbital elements
Apogee altitude
620.647 km
Perigee altitude
590.619 km
Semi-major axis
6,983.77 km
Eccentricity
0.00215
Inclination
66.0596°
RAAN
254.2031°
Arg. of periapsis
145.4057°
True anomaly
214.70644°
Mean anomaly
214.8469°
Eccentric anomaly
214.77664°
Mean motion
3.71885 °/min
Orbital period
96.8 mins
BSTAR
0.00096235
Loading maneuver chart data...
Computing Atmospheric mass density...

Documentation

Showing up to 5 results
|